Location: Newark
(31.5350°N, 35.0986°E)
Time: 00:34:05
(UTC+00:00)

Courier 1B - Pass Details

Date: 27 September 2019
Orbit: 962 x 1209 km, 28.3° (Epoch: 22 October)

Event Time Altitude Azimuth Distance (km) Brightness Sun altitude
Exits shadow 00:29:50 27° 113° (ESE) 1,759 9.1 -38.2°
Drops below altitude 10° 00:33:07 10° 94° (E) 2,736 10.4 -37.6°
Sets 00:35:59 0° 87° (E) 3,715 11.4 -37.0°
